Home   Weather   Ganganagar   Past weeks

Flag for India Past Weather in Ganganagar, Rajasthan, India — Yesterday and Last 2 Weeks

70 °F


Feels Like: 70 °F
Forecast: 69 / 94 °F
Wind: No wind

Location: Lahore Airport

Current Time: Oct 22, 2016 at 5:21:02 AM

Latest Report: Oct 22, 2016 at 4:55 AM

Visibility: 2 mi

Pressure: 29.80 "Hg

Humidity: 73%

Dew Point: 61 °F

Location of GanganagarLocation

Past Weather in Ganganagar — Graph


Ganganagar Temperature Yesterday

Maximum temperature yesterday: 90 °F (at 12:55 PM)
Minimum temperature yesterday: 66 °F (at 6:30 AM)
Average temperature yesterday: 76 °F

High & Low Weather Summary for the Past Weeks

High97 °F (Oct 12, 3:25 PM)89% (Oct 8, 7:25 AM)29.95 "Hg (Oct 8, 7:25 AM)
Low64 °F (Oct 19, 6:25 AM)20% (Oct 13, 3:25 PM)29.68 "Hg (Oct 9, 3:55 PM)
Average81 °F56%29.80 "Hg
* Reported Oct 7 3:55 AM — Oct 22 3:55 AM, Ganganagar, Weather by CustomWeather, © 2016

Note: Actual official high and low records may vary slightly from our data, if they occured in-between our weather recording intervals... More about our weather records


Ganganagar Weather History for the Previous 24 Hours

Scroll right to see more
Time TempWeatherWind HumidityBarometerVisibility
3:55 AM
Sat, Oct 22
72 °FClear.No wind73%29.80 "Hg2 mi
3:25 AM73 °FClear.5 mph69%29.80 "Hg2 mi
2:55 AM73 °FClear.No wind69%29.80 "Hg2 mi
2:25 AM73 °FClear.6 mph69%29.80 "Hg2 mi
1:55 AM73 °FClear.6 mph74%29.80 "Hg2 mi
1:25 AM75 °FClear.3 mph69%29.83 "Hg2 mi
12:55 AM75 °FClear.3 mph69%29.83 "Hg2 mi
12:25 AM75 °FClear.3 mph69%29.83 "Hg2 mi
11:55 PM
Fri, Oct 21
75 °FClear.3 mph69%29.83 "Hg2 mi
11:25 PM75 °FClear.5 mph69%29.83 "Hg2 mi
10:55 PM77 °FClear.3 mph65%29.83 "Hg2 mi
8:25 PM81 °FClear.No wind58%29.80 "Hg2 mi
7:25 PM82 °FClear.3 mph58%29.80 "Hg2 mi
5:25 PM86 °FClear.6 mph49%29.77 "Hg2 mi
4:55 PM86 °FHaze.6 mph46%29.77 "Hg2 mi
4:25 PM88 °FHaze.6 mph43%29.77 "Hg2 mi
2:25 PM90 °FHaze.5 mph38%29.77 "Hg2 mi
1:25 PM90 °FHaze.5 mph41%29.80 "Hg1 mi
12:55 PM90 °FHaze.7 mph41%29.80 "Hg1 mi
12:25 PM88 °FHaze.8 mph43%29.83 "Hg1 mi
11:25 AM82 °FClear.5 mph51%29.86 "Hg1 mi
10:55 AM79 °FClear.3 mph58%29.86 "Hg1 mi
10:25 AM77 °FClear.3 mph61%29.86 "Hg1 mi
9:55 AM75 °FClear.No wind65%29.86 "Hg1 mi
9:25 AM73 °FClear.3 mph69%29.83 "Hg1 mi
8:55 AM72 °FClear.3 mph73%29.83 "Hg1 mi
8:25 AM70 °FFog.5 mph78%29.83 "Hg1 mi
8:00 AM66 °FFog.5 mph88%29.83 "Hg1 mi
7:30 AM66 °FFog.No wind88%29.80 "Hg1 mi
7:00 AM66 °FFog.3 mph88%29.80 "Hg1 mi
6:30 AM66 °FFog.6 mph88%29.77 "Hg1 mi
5:25 AM68 °FFog.3 mph83%29.77 "Hg2 mi
Weather by CustomWeather, © 2016

See weather overviewHow to use our weather pages